Today

Time Wind Dr Wind Spd
mph
Wind Gust
mph
Hum In
%
Humid
%
TempI
F
Temp
F
Raw Bar
in
Tot Rain
in
UV Solar
W/sqm
DailyRain
in
HourRain
in
24HrRain
in
RainRate
in
05/03/26 12:01:30 AM 36 0.0 1.0 53 75 72.3 60.7 29.891 7.14 0.0 0 0.00 0.00 0.00 0.00
05/03/26 12:02:21 AM 34 0.0 1.0 53 75 72.2 60.7 29.892 7.14 0.0 0 0.00 0.00 0.00 0.00
05/03/26 12:03:34 AM 36 0.0 1.0 53 75 72.2 60.6 29.892 7.14 0.0 0 0.00 0.00 0.00 0.00
05/03/26 12:04:22 AM 34 0.0 1.0 53 75 72.2 60.6 29.893 7.14 0.0 0 0.00 0.00 0.00 0.00
05/03/26 12:05:34 AM 38 0.0 1.0 53 76 72.2 60.5 29.895 7.14 0.0 0 0.00 0.00 0.00 0.00
05/03/26 12:06:29 AM 35 0.0 1.0 53 76 72.2 60.5 29.894 7.14 0.0 0 0.00 0.00 0.00 0.00
05/03/26 12:07:17 AM 36 0.0 1.0 53 76 72.2 60.5 29.896 7.14 0.0 0 0.00 0.00 0.00 0.00
05/03/26 12:08:42 AM 36 0.0 1.0 53 76 72.2 60.5 29.897 7.14 0.0 0 0.00 0.00 0.00 0.00
05/03/26 12:09:34 AM 34 0.0 1.0 53 76 72.2 60.4 29.894 7.14 0.0 0 0.00 0.00 0.00 0.00
05/03/26 12:10:22 AM 34 0.0 1.0 53 76 72.1 60.4 29.894 7.14 0.0 0 0.00 0.00 0.00 0.00
05/03/26 12:11:35 AM 36 0.0 1.0 53 76 72.2 60.4 29.897 7.14 0.0 0 0.00 0.00 0.00 0.00
05/03/26 12:12:27 AM 34 0.0 1.0 53 76 72.2 60.3 29.897 7.14 0.0 0 0.00 0.00 0.00 0.00
05/03/26 12:13:18 AM 34 0.0 1.0 53 76 72.2 60.3 29.897 7.14 0.0 0 0.00 0.00 0.00 0.00
05/03/26 12:14:31 AM 32 0.0 1.0 53 76 72.2 60.3 29.895 7.14 0.0 0 0.00 0.00 0.00 0.00
05/03/26 12:15:22 AM 36 0.0 1.0 53 76 72.1 60.3 29.896 7.14 0.0 0 0.00 0.00 0.00 0.00
05/03/26 12:16:32 AM 34 0.0 1.0 53 76 72.1 60.3 29.897 7.14 0.0 0 0.00 0.00 0.00 0.00
05/03/26 12:17:24 AM 37 0.0 1.0 53 76 72.2 60.2 29.899 7.14 0.0 0 0.00 0.00 0.00 0.00
05/03/26 12:18:18 AM 32 0.0 1.0 53 77 72.1 60.2 29.895 7.14 0.0 0 0.00 0.00 0.00 0.00
05/03/26 12:19:28 AM 30 0.0 1.0 53 77 72.1 60.2 29.897 7.14 0.0 0 0.00 0.00 0.00 0.00
05/03/26 12:20:20 AM 37 0.0 1.0 53 77 72.1 60.2 29.897 7.14 0.0 0 0.00 0.00 0.00 0.00
05/03/26 12:21:29 AM 35 0.0 1.0 53 77 72.2 60.2 29.897 7.14 0.0 0 0.00 0.00 0.00 0.00
05/03/26 12:22:21 AM 36 0.0 1.0 53 77 72.1 60.2 29.897 7.14 0.0 0 0.00 0.00 0.00 0.00
05/03/26 12:23:34 AM 36 0.0 1.0 53 77 72.1 60.1 29.896 7.14 0.0 0 0.00 0.00 0.00 0.00
05/03/26 12:24:25 AM 34 0.0 1.0 53 77 72.1 60.1 29.899 7.14 0.0 0 0.00 0.00 0.00 0.00
05/03/26 12:25:17 AM 37 0.0 1.0 53 77 72.2 60.1 29.899 7.14 0.0 0 0.00 0.00 0.00 0.00
05/03/26 12:26:27 AM 36 0.0 1.0 53 77 72.1 60.0 29.900 7.14 0.0 0 0.00 0.00 0.00 0.00
05/03/26 12:27:18 AM 37 0.0 1.0 53 77 72.1 60.0 29.900 7.14 0.0 0 0.00 0.00 0.00 0.00
05/03/26 12:28:31 AM 32 0.0 1.0 53 77 72.1 60.0 29.899 7.14 0.0 0 0.00 0.00 0.00 0.00
05/03/26 12:29:22 AM 38 0.0 1.0 53 77 72.1 60.0 29.901 7.14 0.0 0 0.00 0.00 0.00 0.00
05/03/26 12:30:35 AM 32 0.0 1.0 53 77 72.1 59.9 29.901 7.14 0.0 0 0.00 0.00 0.00 0.00
05/03/26 12:31:24 AM 36 0.0 1.0 53 77 72.1 59.9 29.899 7.14 0.0 0 0.00 0.00 0.00 0.00
05/03/26 12:32:15 AM 36 0.0 1.0 53 77 72.1 59.9 29.900 7.14 0.0 0 0.00 0.00 0.00 0.00
05/03/26 12:33:28 AM 34 0.0 1.0 53 78 72.1 59.9 29.903 7.14 0.0 0 0.00 0.00 0.00 0.00
05/03/26 12:34:20 AM 38 0.0 1.0 53 78 72.1 59.9 29.901 7.14 0.0 0 0.00 0.00 0.00 0.00
05/03/26 12:35:32 AM 36 0.0 1.0 53 78 72.1 59.9 29.901 7.14 0.0 0 0.00 0.00 0.00 0.00
05/03/26 12:36:24 AM 38 2.0 2.0 53 78 72.1 59.9 29.901 7.14 0.0 0 0.00 0.00 0.00 0.00
05/03/26 12:37:31 AM 35 1.0 2.0 53 78 72.1 59.9 29.899 7.14 0.0 0 0.00 0.00 0.00 0.00
05/03/26 12:38:25 AM 32 1.0 2.0 53 78 72.1 59.9 29.901 7.14 0.0 0 0.00 0.00 0.00 0.00
05/03/26 12:39:35 AM 31 1.0 2.0 53 78 72.1 59.9 29.901 7.14 0.0 0 0.00 0.00 0.00 0.00
05/03/26 12:40:29 AM 35 1.0 2.0 53 78 72.1 59.9 29.903 7.14 0.0 0 0.00 0.00 0.00 0.00
05/03/26 12:41:21 AM 38 1.0 2.0 53 78 72.1 59.9 29.904 7.14 0.0 0 0.00 0.00 0.00 0.00
05/03/26 12:42:28 AM 36 1.0 3.0 53 78 72.1 59.9 29.905 7.14 0.0 0 0.00 0.00 0.00 0.00
05/03/26 12:43:22 AM 31 1.0 3.0 53 78 72.1 59.9 29.905 7.14 0.0 0 0.00 0.00 0.00 0.00
05/03/26 12:44:35 AM 31 0.0 3.0 53 78 72.1 59.9 29.904 7.14 0.0 0 0.00 0.00 0.00 0.00
05/03/26 12:45:27 AM 34 1.0 3.0 53 78 72.1 59.9 29.906 7.14 0.0 0 0.00 0.00 0.00 0.00
05/03/26 12:46:18 AM 38 1.0 3.0 53 78 72.1 59.8 29.905 7.14 0.0 0 0.00 0.00 0.00 0.00
05/03/26 12:47:28 AM 36 0.0 3.0 53 78 72.1 59.8 29.907 7.14 0.0 0 0.00 0.00 0.00 0.00
05/03/26 12:48:19 AM 35 0.0 3.0 53 78 72.1 59.8 29.909 7.14 0.0 0 0.00 0.00 0.00 0.00
05/03/26 12:49:32 AM 35 0.0 3.0 53 78 72.1 59.8 29.906 7.14 0.0 0 0.00 0.00 0.00 0.00
05/03/26 12:50:27 AM 38 0.0 3.0 53 78 72.1 59.7 29.908 7.14 0.0 0 0.00 0.00 0.00 0.00
05/03/26 12:51:18 AM 32 0.0 3.0 53 78 72.1 59.7 29.910 7.14 0.0 0 0.00 0.00 0.00 0.00
05/03/26 12:52:31 AM 35 0.0 3.0 53 78 72.1 59.7 29.909 7.14 0.0 0 0.00 0.00 0.00 0.00
05/03/26 12:53:20 AM 39 0.0 3.0 53 78 72.1 59.6 29.910 7.14 0.0 0 0.00 0.00 0.00 0.00
05/03/26 12:54:32 AM 32 0.0 3.0 53 78 72.1 59.6 29.909 7.14 0.0 0 0.00 0.00 0.00 0.00
05/03/26 12:55:24 AM 35 0.0 3.0 53 78 72.0 59.6 29.910 7.14 0.0 0 0.00 0.00 0.00 0.00
05/03/26 12:56:15 AM 31 0.0 3.0 53 78 72.1 59.6 29.908 7.14 0.0 0 0.00 0.00 0.00 0.00
05/03/26 12:57:28 AM 36 0.0 3.0 53 78 72.1 59.6 29.906 7.14 0.0 0 0.00 0.00 0.00 0.00
05/03/26 12:58:17 AM 38 0.0 3.0 53 78 72.1 59.6 29.907 7.14 0.0 0 0.00 0.00 0.00 0.00
05/03/26 12:59:29 AM 38 0.0 3.0 53 78 72.1 59.5 29.905 7.14 0.0 0 0.00 0.00 0.00 0.00
05/03/26 1:00:24 AM 35 0.0 3.0 53 78 72.1 59.5 29.907 7.14 0.0 0 0.00 0.00 0.00 0.00
05/03/26 1:01:37 AM 36 0.0 3.0 53 78 72.1 59.5 29.907 7.14 0.0 0 0.00 0.00 0.00 0.00
05/03/26 1:02:28 AM 30 0.0 3.0 53 78 72.0 59.5 29.905 7.14 0.0 0 0.00 0.00 0.00 0.00
05/03/26 1:03:20 AM 36 0.0 3.0 53 79 72.1 59.4 29.902 7.14 0.0 0 0.00 0.00 0.00 0.00
05/03/26 1:04:29 AM 36 0.0 3.0 53 79 72.1 59.4 29.903 7.14 0.0 0 0.00 0.00 0.00 0.00
05/03/26 1:05:21 AM 34 0.0 3.0 53 79 72.1 59.4 29.904 7.14 0.0 0 0.00 0.00 0.00 0.00
05/03/26 1:06:34 AM 36 0.0 3.0 53 79 72.0 59.4 29.903 7.14 0.0 0 0.00 0.00 0.00 0.00
05/03/26 1:07:25 AM 34 0.0 3.0 53 79 72.0 59.4 29.903 7.14 0.0 0 0.00 0.00 0.00 0.00
05/03/26 1:08:17 AM 38 0.0 3.0 53 79 72.0 59.4 29.899 7.14 0.0 0 0.00 0.00 0.00 0.00
05/03/26 1:09:27 AM 36 0.0 3.0 53 79 72.0 59.4 29.901 7.14 0.0 0 0.00 0.00 0.00 0.00
05/03/26 1:10:18 AM 32 0.0 3.0 53 79 72.0 59.4 29.903 7.14 0.0 0 0.00 0.00 0.00 0.00
05/03/26 1:11:31 AM 32 0.0 3.0 53 79 72.0 59.3 29.901 7.14 0.0 0 0.00 0.00 0.00 0.00
05/03/26 1:12:23 AM 37 0.0 3.0 53 79 72.0 59.3 29.900 7.14 0.0 0 0.00 0.00 0.00 0.00
05/03/26 1:13:35 AM 32 0.0 3.0 53 79 72.0 59.3 29.901 7.14 0.0 0 0.00 0.00 0.00 0.00
05/03/26 1:14:24 AM 36 0.0 3.0 53 79 72.0 59.3 29.902 7.14 0.0 0 0.00 0.00 0.00 0.00
05/03/26 1:15:37 AM 36 0.0 3.0 53 79 72.0 59.3 29.903 7.14 0.0 0 0.00 0.00 0.00 0.00
05/03/26 1:16:28 AM 36 0.0 3.0 53 79 72.0 59.3 29.903 7.14 0.0 0 0.00 0.00 0.00 0.00
05/03/26 1:17:20 AM 34 0.0 3.0 53 79 72.0 59.2 29.903 7.14 0.0 0 0.00 0.00 0.00 0.00
05/03/26 1:18:33 AM 36 0.0 3.0 53 79 72.0 59.2 29.902 7.14 0.0 0 0.00 0.00 0.00 0.00
05/03/26 1:19:24 AM 36 0.0 3.0 53 79 72.0 59.2 29.901 7.14 0.0 0 0.00 0.00 0.00 0.00
05/03/26 1:20:34 AM 35 0.0 3.0 53 79 72.0 59.1 29.902 7.14 0.0 0 0.00 0.00 0.00 0.00
05/03/26 1:21:26 AM 32 0.0 3.0 53 79 72.0 59.1 29.900 7.14 0.0 0 0.00 0.00 0.00 0.00
05/03/26 1:22:17 AM 36 0.0 3.0 53 79 71.9 59.1 29.902 7.14 0.0 0 0.00 0.00 0.00 0.00
05/03/26 1:23:30 AM 35 0.0 3.0 53 79 71.9 59.1 29.903 7.14 0.0 0 0.00 0.00 0.00 0.00
05/03/26 1:24:22 AM 38 0.0 3.0 53 79 71.9 59.0 29.902 7.14 0.0 0 0.00 0.00 0.00 0.00
05/03/26 1:25:28 AM 37 0.0 3.0 53 79 72.0 59.0 29.902 7.14 0.0 0 0.00 0.00 0.00 0.00
05/03/26 1:26:20 AM 36 0.0 3.0 53 79 71.9 59.0 29.902 7.14 0.0 0 0.00 0.00 0.00 0.00
05/03/26 1:27:33 AM 36 0.0 3.0 53 79 71.9 59.0 29.903 7.14 0.0 0 0.00 0.00 0.00 0.00
05/03/26 1:28:24 AM 36 0.0 3.0 53 79 71.9 59.0 29.904 7.14 0.0 0 0.00 0.00 0.00 0.00
05/03/26 1:29:19 AM 36 0.0 3.0 53 79 71.9 58.9 29.905 7.14 0.0 0 0.00 0.00 0.00 0.00
05/03/26 1:30:29 AM 38 0.0 3.0 53 79 71.9 58.9 29.904 7.14 0.0 0 0.00 0.00 0.00 0.00
05/03/26 1:31:20 AM 34 0.0 3.0 53 79 71.9 58.9 29.906 7.14 0.0 0 0.00 0.00 0.00 0.00
05/03/26 1:32:33 AM 36 0.0 3.0 53 79 71.9 58.9 29.905 7.14 0.0 0 0.00 0.00 0.00 0.00
05/03/26 1:33:25 AM 37 0.0 3.0 53 79 71.9 58.8 29.905 7.14 0.0 0 0.00 0.00 0.00 0.00
05/03/26 1:34:17 AM 37 0.0 3.0 53 79 71.9 58.8 29.905 7.14 0.0 0 0.00 0.00 0.00 0.00
05/03/26 1:35:29 AM 37 0.0 3.0 53 80 71.8 58.8 29.904 7.14 0.0 0 0.00 0.00 0.00 0.00
05/03/26 1:36:18 AM 37 0.0 3.0 53 80 71.8 58.8 29.905 7.14 0.0 0 0.00 0.00 0.00 0.00
05/03/26 1:37:31 AM 37 0.0 3.0 53 80 71.9 58.7 29.905 7.14 0.0 0 0.00 0.00 0.00 0.00
05/03/26 1:38:22 AM 36 0.0 3.0 53 80 71.8 58.7 29.906 7.14 0.0 0 0.00 0.00 0.00 0.00
05/03/26 1:39:32 AM 36 0.0 3.0 53 80 71.8 58.7 29.903 7.14 0.0 0 0.00 0.00 0.00 0.00
05/03/26 1:40:27 AM 34 0.0 3.0 53 80 71.9 58.7 29.905 7.14 0.0 0 0.00 0.00 0.00 0.00
05/03/26 1:41:34 AM 37 0.0 3.0 53 80 71.8 58.7 29.904 7.14 0.0 0 0.00 0.00 0.00 0.00
05/03/26 1:42:25 AM 36 0.0 3.0 53 80 71.8 58.6 29.902 7.14 0.0 0 0.00 0.00 0.00 0.00
05/03/26 1:43:20 AM 34 0.0 3.0 53 80 71.8 58.6 29.902 7.14 0.0 0 0.00 0.00 0.00 0.00
05/03/26 1:44:30 AM 36 0.0 3.0 53 80 71.8 58.6 29.902 7.14 0.0 0 0.00 0.00 0.00 0.00
05/03/26 1:45:24 AM 32 0.0 3.0 53 80 71.8 58.6 29.902 7.14 0.0 0 0.00 0.00 0.00 0.00
05/03/26 1:46:31 AM 31 0.0 3.0 53 80 71.8 58.6 29.902 7.14 0.0 0 0.00 0.00 0.00 0.00
05/03/26 1:47:23 AM 32 0.0 3.0 53 80 71.8 58.6 29.902 7.14 0.0 0 0.00 0.00 0.00 0.00
05/03/26 1:48:32 AM 34 0.0 3.0 53 80 71.8 58.6 29.902 7.14 0.0 0 0.00 0.00 0.00 0.00
05/03/26 1:49:27 AM 37 0.0 3.0 53 80 71.8 58.6 29.902 7.14 0.0 0 0.00 0.00 0.00 0.00
05/03/26 1:50:19 AM 32 0.0 3.0 53 80 71.8 58.6 29.900 7.14 0.0 0 0.00 0.00 0.00 0.00
05/03/26 1:51:31 AM 30 0.0 3.0 53 81 71.8 58.5 29.900 7.14 0.0 0 0.00 0.00 0.00 0.00
05/03/26 1:52:20 AM 36 0.0 3.0 53 81 71.8 58.6 29.900 7.14 0.0 0 0.00 0.00 0.00 0.00
05/03/26 1:53:33 AM 36 0.0 3.0 53 81 71.8 58.5 29.898 7.14 0.0 0 0.00 0.00 0.00 0.00
05/03/26 1:54:24 AM 34 0.0 3.0 53 81 71.7 58.5 29.900 7.14 0.0 0 0.00 0.00 0.00 0.00
05/03/26 1:55:19 AM 35 0.0 3.0 53 81 71.8 58.5 29.898 7.14 0.0 0 0.00 0.00 0.00 0.00
05/03/26 1:56:32 AM 35 0.0 3.0 53 81 71.8 58.5 29.899 7.14 0.0 0 0.00 0.00 0.00 0.00
05/03/26 1:57:17 AM 32 0.0 3.0 53 81 71.8 58.5 29.898 7.14 0.0 0 0.00 0.00 0.00 0.00
05/03/26 1:58:30 AM 38 0.0 3.0 53 81 71.8 58.5 29.900 7.14 0.0 0 0.00 0.00 0.00 0.00
05/03/26 1:59:22 AM 35 0.0 3.0 53 81 71.8 58.5 29.900 7.14 0.0 0 0.00 0.00 0.00 0.00
05/03/26 2:00:59 AM 38 0.0 3.0 53 81 71.7 58.5 29.902 7.14 0.0 0 0.00 0.00 0.00 0.00
05/03/26 2:01:26 AM 32 0.0 3.0 53 81 71.7 58.5 29.899 7.14 0.0 0 0.00 0.00 0.00 0.00
05/03/26 2:02:18 AM 30 0.0 3.0 53 81 71.7 58.5 29.900 7.14 0.0 0 0.00 0.00 0.00 0.00
05/03/26 2:03:28 AM 35 0.0 3.0 53 81 71.8 58.5 29.898 7.14 0.0 0 0.00 0.00 0.00 0.00
05/03/26 2:04:19 AM 34 0.0 3.0 53 81 71.7 58.5 29.900 7.14 0.0 0 0.00 0.00 0.00 0.00
05/03/26 2:05:32 AM 37 0.0 3.0 53 81 71.8 58.4 29.899 7.14 0.0 0 0.00 0.00 0.00 0.00
05/03/26 2:06:27 AM 34 0.0 3.0 53 81 71.7 58.4 29.902 7.14 0.0 0 0.00 0.00 0.00 0.00
05/03/26 2:07:18 AM 38 0.0 3.0 53 81 71.7 58.4 29.900 7.14 0.0 0 0.00 0.00 0.00 0.00
05/03/26 2:08:58 AM 35 0.0 3.0 53 81 71.7 58.4 29.901 7.14 0.0 0 0.00 0.00 0.00 0.00
05/03/26 2:09:32 AM 34 0.0 3.0 53 81 71.7 58.4 29.902 7.14 0.0 0 0.00 0.00 0.00 0.00
05/03/26 2:10:23 AM 31 0.0 3.0 53 81 71.7 58.3 29.899 7.14 0.0 0 0.00 0.00 0.00 0.00
05/03/26 2:11:33 AM 36 0.0 3.0 53 81 71.7 58.3 29.898 7.14 0.0 0 0.00 0.00 0.00 0.00
05/03/26 2:12:25 AM 38 0.0 3.0 53 81 71.7 58.3 29.898 7.14 0.0 0 0.00 0.00 0.00 0.00
05/03/26 2:13:17 AM 35 0.0 3.0 53 81 71.7 58.3 29.898 7.14 0.0 0 0.00 0.00 0.00 0.00
05/03/26 2:14:23 AM 34 0.0 3.0 53 81 71.7 58.2 29.898 7.14 0.0 0 0.00 0.00 0.00 0.00
05/03/26 2:15:18 AM 37 0.0 3.0 53 81 71.7 58.2 29.895 7.14 0.0 0 0.00 0.00 0.00 0.00
05/03/26 2:16:31 AM 37 0.0 3.0 53 81 71.7 58.2 29.894 7.14 0.0 0 0.00 0.00 0.00 0.00
05/03/26 2:17:22 AM 32 0.0 3.0 53 81 71.7 58.2 29.895 7.14 0.0 0 0.00 0.00 0.00 0.00
05/03/26 2:18:35 AM 34 0.0 3.0 53 81 71.7 58.1 29.898 7.14 0.0 0 0.00 0.00 0.00 0.00
05/03/26 2:19:24 AM 38 0.0 3.0 53 81 71.6 58.1 29.895 7.14 0.0 0 0.00 0.00 0.00 0.00
05/03/26 2:20:34 AM 32 0.0 3.0 53 81 71.7 58.1 29.894 7.14 0.0 0 0.00 0.00 0.00 0.00
05/03/26 2:21:28 AM 34 0.0 3.0 53 81 71.6 58.1 29.896 7.14 0.0 0 0.00 0.00 0.00 0.00
05/03/26 2:22:20 AM 32 0.0 3.0 53 81 71.6 58.0 29.893 7.14 0.0 0 0.00 0.00 0.00 0.00
05/03/26 2:23:33 AM 36 0.0 3.0 53 81 71.6 58.0 29.892 7.14 0.0 0 0.00 0.00 0.00 0.00
05/03/26 2:24:24 AM 34 0.0 3.0 53 81 71.6 58.0 29.893 7.14 0.0 0 0.00 0.00 0.00 0.00
05/03/26 2:25:31 AM 34 0.0 3.0 53 81 71.5 57.9 29.893 7.14 0.0 0 0.00 0.00 0.00 0.00
05/03/26 2:26:26 AM 38 0.0 3.0 53 81 71.6 57.9 29.890 7.14 0.0 0 0.00 0.00 0.00 0.00
05/03/26 2:27:18 AM 35 0.0 3.0 53 81 71.6 57.9 29.892 7.14 0.0 0 0.00 0.00 0.00 0.00
05/03/26 2:28:30 AM 38 0.0 3.0 53 81 71.6 57.8 29.892 7.14 0.0 0 0.00 0.00 0.00 0.00
05/03/26 2:29:22 AM 36 0.0 3.0 53 81 71.5 57.8 29.892 7.14 0.0 0 0.00 0.00 0.00 0.00
05/03/26 2:30:53 AM 37 0.0 3.0 53 81 71.5 57.8 29.893 7.14 0.0 0 0.00 0.00 0.00 0.00
05/03/26 2:31:23 AM 36 0.0 3.0 53 81 71.6 57.7 29.893 7.14 0.0 0 0.00 0.00 0.00 0.00
05/03/26 2:32:36 AM 32 0.0 3.0 53 81 71.6 57.7 29.893 7.14 0.0 0 0.00 0.00 0.00 0.00
05/03/26 2:33:28 AM 34 0.0 3.0 53 81 71.6 57.7 29.892 7.14 0.0 0 0.00 0.00 0.00 0.00
05/03/26 2:34:20 AM 38 0.0 3.0 53 81 71.6 57.7 29.895 7.14 0.0 0 0.00 0.00 0.00 0.00
05/03/26 2:35:32 AM 34 0.0 3.0 53 81 71.6 57.6 29.892 7.14 0.0 0 0.00 0.00 0.00 0.00
05/03/26 2:36:21 AM 36 0.0 3.0 53 81 71.6 57.6 29.895 7.14 0.0 0 0.00 0.00 0.00 0.00
05/03/26 2:37:34 AM 34 0.0 3.0 53 81 71.6 57.6 29.894 7.14 0.0 0 0.00 0.00 0.00 0.00
05/03/26 2:38:25 AM 37 0.0 3.0 53 81 71.6 57.6 29.892 7.14 0.0 0 0.00 0.00 0.00 0.00
05/03/26 2:39:17 AM 35 0.0 3.0 53 81 71.6 57.5 29.891 7.14 0.0 0 0.00 0.00 0.00 0.00
05/03/26 2:40:30 AM 36 0.0 3.0 53 81 71.6 57.5 29.895 7.14 0.0 0 0.00 0.00 0.00 0.00
05/03/26 2:41:19 AM 36 0.0 3.0 53 81 71.6 57.5 29.893 7.14 0.0 0 0.00 0.00 0.00 0.00
05/03/26 2:42:28 AM 36 0.0 3.0 53 81 71.6 57.5 29.896 7.14 0.0 0 0.00 0.00 0.00 0.00
05/03/26 2:43:20 AM 34 0.0 3.0 53 81 71.6 57.4 29.893 7.14 0.0 0 0.00 0.00 0.00 0.00
05/03/26 2:44:36 AM 36 0.0 3.0 53 81 71.6 57.4 29.895 7.14 0.0 0 0.00 0.00 0.00 0.00
05/03/26 2:45:52 AM 36 0.0 3.0 53 81 71.6 57.4 29.890 7.14 0.0 0 0.00 0.00 0.00 0.00
05/03/26 2:46:19 AM 34 0.0 3.0 53 81 71.6 57.3 29.891 7.14 0.0 0 0.00 0.00 0.00 0.00
05/03/26 2:47:26 AM 35 0.0 3.0 53 81 71.5 57.3 29.890 7.14 0.0 0 0.00 0.00 0.00 0.00
05/03/26 2:48:21 AM 36 0.0 3.0 53 81 71.6 57.3 29.887 7.14 0.0 0 0.00 0.00 0.00 0.00
05/03/26 2:49:33 AM 35 0.0 3.0 53 81 71.5 57.2 29.889 7.14 0.0 0 0.00 0.00 0.00 0.00
05/03/26 2:50:25 AM 37 0.0 3.0 53 81 71.6 57.2 29.888 7.14 0.0 0 0.00 0.00 0.00 0.00
05/03/26 2:51:17 AM 31 0.0 3.0 53 81 71.5 57.2 29.888 7.14 0.0 0 0.00 0.00 0.00 0.00
05/03/26 2:52:26 AM 36 0.0 3.0 53 82 71.5 57.1 29.889 7.14 0.0 0 0.00 0.00 0.00 0.00
05/03/26 2:53:18 AM 37 0.0 3.0 53 82 71.5 57.1 29.893 7.14 0.0 0 0.00 0.00 0.00 0.00
05/03/26 2:54:31 AM 34 0.0 3.0 53 82 71.5 57.1 29.891 7.14 0.0 0 0.00 0.00 0.00 0.00
05/03/26 2:55:25 AM 38 0.0 3.0 53 82 71.5 57.1 29.893 7.14 0.0 0 0.00 0.00 0.00 0.00
05/03/26 2:56:35 AM 34 0.0 3.0 53 82 71.5 57.0 29.892 7.14 0.0 0 0.00 0.00 0.00 0.00
05/03/26 2:57:27 AM 38 0.0 3.0 53 82 71.5 57.0 29.893 7.14 0.0 0 0.00 0.00 0.00 0.00
05/03/26 2:58:37 AM 36 0.0 3.0 53 82 71.5 56.9 29.892 7.14 0.0 0 0.00 0.00 0.00 0.00
05/03/26 2:59:28 AM 37 0.0 3.0 53 82 71.5 56.8 29.892 7.14 0.0 0 0.00 0.00 0.00 0.00
05/03/26 3:00:23 AM 37 0.0 3.0 53 82 71.5 56.8 29.892 7.14 0.0 0 0.00 0.00 0.00 0.00
05/03/26 3:01:33 AM 37 0.0 3.0 53 82 71.4 56.7 29.893 7.14 0.0 0 0.00 0.00 0.00 0.00
05/03/26 3:02:24 AM 38 0.0 3.0 53 82 71.5 56.7 29.892 7.14 0.0 0 0.00 0.00 0.00 0.00
05/03/26 3:03:31 AM 37 0.0 3.0 53 82 71.5 56.7 29.895 7.14 0.0 0 0.00 0.00 0.00 0.00
05/03/26 3:04:26 AM 30 0.0 3.0 53 82 71.5 56.6 29.896 7.14 0.0 0 0.00 0.00 0.00 0.00
05/03/26 3:05:18 AM 37 0.0 3.0 53 82 71.4 56.6 29.894 7.14 0.0 0 0.00 0.00 0.00 0.00
05/03/26 3:06:30 AM 34 0.0 3.0 53 82 71.4 56.6 29.896 7.14 0.0 0 0.00 0.00 0.00 0.00
05/03/26 3:07:22 AM 37 0.0 3.0 53 82 71.5 56.5 29.897 7.14 0.0 0 0.00 0.00 0.00 0.00
05/03/26 3:08:29 AM 36 0.0 3.0 53 82 71.4 56.4 29.896 7.14 0.0 0 0.00 0.00 0.00 0.00
05/03/26 3:09:24 AM 36 0.0 3.0 53 82 71.4 56.4 29.896 7.14 0.0 0 0.00 0.00 0.00 0.00
05/03/26 3:10:33 AM 36 0.0 3.0 53 83 71.4 56.4 29.898 7.14 0.0 0 0.00 0.00 0.00 0.00
05/03/26 3:11:25 AM 37 0.0 3.0 53 83 71.4 56.4 29.898 7.14 0.0 0 0.00 0.00 0.00 0.00
05/03/26 3:12:17 AM 38 0.0 3.0 53 83 71.4 56.4 29.898 7.14 0.0 0 0.00 0.00 0.00 0.00
05/03/26 3:13:29 AM 36 0.0 3.0 53 83 71.3 56.4 29.898 7.14 0.0 0 0.00 0.00 0.00 0.00
05/03/26 3:14:18 AM 37 0.0 3.0 53 83 71.3 56.3 29.898 7.14 0.0 0 0.00 0.00 0.00 0.00
05/03/26 3:15:31 AM 35 0.0 3.0 53 83 71.4 56.3 29.895 7.14 0.0 0 0.00 0.00 0.00 0.00
05/03/26 3:16:23 AM 31 0.0 3.0 53 83 71.3 56.2 29.896 7.14 0.0 0 0.00 0.00 0.00 0.00
05/03/26 3:17:33 AM 32 0.0 3.0 53 83 71.4 56.3 29.900 7.14 0.0 0 0.00 0.00 0.00 0.00
05/03/26 3:18:27 AM 34 0.0 3.0 53 83 71.4 56.2 29.898 7.14 0.0 0 0.00 0.00 0.00 0.00
05/03/26 3:19:34 AM 37 0.0 3.0 53 83 71.3 56.2 29.899 7.14 0.0 0 0.00 0.00 0.00 0.00
05/03/26 3:20:26 AM 36 0.0 3.0 53 83 71.3 56.2 29.898 7.14 0.0 0 0.00 0.00 0.00 0.00
05/03/26 3:21:18 AM 34 0.0 3.0 53 83 71.3 56.2 29.897 7.14 0.0 0 0.00 0.00 0.00 0.00
05/03/26 3:22:31 AM 36 0.0 3.0 53 84 71.3 56.2 29.895 7.14 0.0 0 0.00 0.00 0.00 0.00
05/03/26 3:23:22 AM 36 0.0 3.0 53 84 71.3 56.2 29.898 7.14 0.0 0 0.00 0.00 0.00 0.00
05/03/26 3:24:32 AM 31 0.0 3.0 53 84 71.3 56.2 29.895 7.14 0.0 0 0.00 0.00 0.00 0.00
05/03/26 3:25:24 AM 32 0.0 3.0 53 84 71.3 56.2 29.894 7.14 0.0 0 0.00 0.00 0.00 0.00
05/03/26 3:26:34 AM 34 0.0 3.0 53 84 71.3 56.2 29.896 7.14 0.0 0 0.00 0.00 0.00 0.00
05/03/26 3:27:25 AM 36 0.0 3.0 53 84 71.3 56.1 29.895 7.14 0.0 0 0.00 0.00 0.00 0.00
05/03/26 3:28:17 AM 36 0.0 3.0 53 84 71.2 56.1 29.891 7.14 0.0 0 0.00 0.00 0.00 0.00
05/03/26 3:29:30 AM 35 0.0 3.0 53 84 71.2 56.1 29.894 7.14 0.0 0 0.00 0.00 0.00 0.00
05/03/26 3:30:43 AM 34 0.0 3.0 53 84 71.3 56.1 29.890 7.14 0.0 0 0.00 0.00 0.00 0.00
05/03/26 3:31:34 AM 37 0.0 3.0 53 84 71.2 56.0 29.891 7.14 0.0 0 0.00 0.00 0.00 0.00
05/03/26 3:32:26 AM 34 0.0 3.0 53 84 71.2 56.0 29.888 7.14 0.0 0 0.00 0.00 0.00 0.00
05/03/26 3:33:21 AM 36 0.0 3.0 53 84 71.2 56.0 29.892 7.14 0.0 0 0.00 0.00 0.00 0.00
05/03/26 3:34:31 AM 36 0.0 3.0 53 84 71.1 56.0 29.892 7.14 0.0 0 0.00 0.00 0.00 0.00
05/03/26 3:35:22 AM 37 0.0 3.0 53 84 71.2 56.0 29.889 7.14 0.0 0 0.00 0.00 0.00 0.00
05/03/26 3:36:32 AM 34 0.0 3.0 53 84 71.2 56.0 29.890 7.14 0.0 0 0.00 0.00 0.00 0.00
05/03/26 3:37:24 AM 36 0.0 3.0 53 85 71.2 56.1 29.889 7.14 0.0 0 0.00 0.00 0.00 0.00
05/03/26 3:38:19 AM 38 0.0 3.0 53 85 71.1 56.1 29.891 7.14 0.0 0 0.00 0.00 0.00 0.00
05/03/26 3:39:29 AM 32 0.0 3.0 53 85 71.2 56.1 29.889 7.14 0.0 0 0.00 0.00 0.00 0.00
05/03/26 3:40:20 AM 34 0.0 3.0 53 85 71.2 56.1 29.888 7.14 0.0 0 0.00 0.00 0.00 0.00
05/03/26 3:41:30 AM 35 0.0 3.0 53 85 71.2 56.0 29.889 7.14 0.0 0 0.00 0.00 0.00 0.00
05/03/26 3:42:22 AM 34 0.0 3.0 53 85 71.2 56.0 29.889 7.14 0.0 0 0.00 0.00 0.00 0.00
05/03/26 3:43:31 AM 37 0.0 3.0 53 85 71.2 56.0 29.890 7.14 0.0 0 0.00 0.00 0.00 0.00
05/03/26 3:44:23 AM 35 0.0 3.0 53 85 71.1 56.0 29.891 7.14 0.0 0 0.00 0.00 0.00 0.00
05/03/26 3:45:36 AM 36 0.0 3.0 53 85 71.2 56.0 29.892 7.14 0.0 0 0.00 0.00 0.00 0.00
05/03/26 3:46:25 AM 35 0.0 3.0 53 85 71.2 56.0 29.890 7.14 0.0 0 0.00 0.00 0.00 0.00
05/03/26 3:47:35 AM 34 0.0 3.0 53 85 71.2 56.0 29.891 7.14 0.0 0 0.00 0.00 0.00 0.00
05/03/26 3:48:26 AM 32 0.0 3.0 53 85 71.2 55.9 29.891 7.14 0.0 0 0.00 0.00 0.00 0.00
05/03/26 3:49:21 AM 35 0.0 3.0 53 85 71.1 55.9 29.892 7.14 0.0 0 0.00 0.00 0.00 0.00
05/03/26 3:50:31 AM 36 0.0 3.0 53 84 71.2 55.9 29.890 7.14 0.0 0 0.00 0.00 0.00 0.00
05/03/26 3:51:22 AM 31 0.0 3.0 53 84 71.1 55.8 29.890 7.14 0.0 0 0.00 0.00 0.00 0.00
05/03/26 3:52:32 AM 35 0.0 3.0 53 84 71.2 55.7 29.891 7.14 0.0 0 0.00 0.00 0.00 0.00
05/03/26 3:53:24 AM 35 0.0 3.0 53 84 71.1 55.7 29.891 7.14 0.0 0 0.00 0.00 0.00 0.00
05/03/26 3:54:16 AM 35 0.0 3.0 53 84 71.1 55.6 29.891 7.14 0.0 0 0.00 0.00 0.00 0.00
05/03/26 3:55:29 AM 36 1.0 3.0 53 84 71.1 55.5 29.891 7.14 0.0 0 0.00 0.00 0.00 0.00
05/03/26 3:56:20 AM 36 3.0 3.0 53 84 71.1 55.4 29.889 7.14 0.0 0 0.00 0.00 0.00 0.00
05/03/26 3:57:30 AM 34 2.0 3.0 53 84 71.1 55.3 29.890 7.14 0.0 0 0.00 0.00 0.00 0.00
05/03/26 3:58:22 AM 36 2.0 3.0 53 84 71.1 55.3 29.890 7.14 0.0 0 0.00 0.00 0.00 0.00
05/03/26 3:59:35 AM 34 2.0 3.0 53 85 71.1 55.3 29.892 7.14 0.0 0 0.00 0.00 0.00 0.00
05/03/26 4:00:26 AM 34 3.0 3.0 53 85 71.1 55.3 29.892 7.14 0.0 0 0.00 0.00 0.00 0.00
05/03/26 4:01:18 AM 35 2.0 3.0 53 85 71.1 55.3 29.893 7.14 0.0 0 0.00 0.00 0.00 0.00
05/03/26 4:02:25 AM 32 1.0 3.0 53 85 71.1 55.3 29.891 7.14 0.0 0 0.00 0.00 0.00 0.00
05/03/26 4:03:16 AM 36 1.0 3.0 53 85 71.1 55.3 29.890 7.14 0.0 0 0.00 0.00 0.00 0.00
05/03/26 4:04:29 AM 35 0.0 3.0 53 85 71.1 55.3 29.888 7.14 0.0 0 0.00 0.00 0.00 0.00
05/03/26 4:05:21 AM 36 0.0 3.0 53 85 71.1 55.3 29.890 7.14 0.0 0 0.00 0.00 0.00 0.00
05/03/26 4:06:34 AM 37 0.0 3.0 53 85 71.1 55.3 29.887 7.14 0.0 0 0.00 0.00 0.00 0.00
05/03/26 4:07:25 AM 36 0.0 3.0 53 85 71.0 55.3 29.887 7.14 0.0 0 0.00 0.00 0.00 0.00
05/03/26 4:08:44 AM 36 0.0 3.0 53 85 71.1 55.3 29.888 7.14 0.0 0 0.00 0.00 0.00 0.00
05/03/26 4:09:18 AM 37 0.0 3.0 53 85 71.1 55.3 29.891 7.14 0.0 0 0.00 0.00 0.00 0.00
05/03/26 4:10:31 AM 36 0.0 3.0 53 85 71.0 55.3 29.889 7.14 0.0 0 0.00 0.00 0.00 0.00
05/03/26 4:11:22 AM 30 0.0 3.0 53 85 71.0 55.3 29.889 7.14 0.0 0 0.00 0.00 0.00 0.00
05/03/26 4:12:35 AM 31 0.0 3.0 53 85 71.1 55.3 29.888 7.14 0.0 0 0.00 0.00 0.00 0.00
05/03/26 4:13:24 AM 35 0.0 3.0 53 85 71.0 55.3 29.888 7.14 0.0 0 0.00 0.00 0.00 0.00
05/03/26 4:14:34 AM 36 0.0 3.0 53 85 71.0 55.3 29.888 7.14 0.0 0 0.00 0.00 0.00 0.00
05/03/26 4:15:28 AM 37 0.0 3.0 53 85 71.0 55.3 29.888 7.14 0.0 0 0.00 0.00 0.00 0.00
05/03/26 4:16:17 AM 35 0.0 3.0 53 86 71.0 55.3 29.887 7.14 0.0 0 0.00 0.00 0.00 0.00
05/03/26 4:17:30 AM 36 0.0 3.0 53 86 71.0 55.3 29.890 7.14 0.0 0 0.00 0.00 0.00 0.00
05/03/26 4:18:25 AM 32 0.0 3.0 53 86 71.0 55.3 29.889 7.14 0.0 0 0.00 0.00 0.00 0.00
05/03/26 4:19:32 AM 38 0.0 3.0 53 86 71.0 55.3 29.889 7.14 0.0 0 0.00 0.00 0.00 0.00
05/03/26 4:20:23 AM 32 0.0 3.0 53 86 71.0 55.3 29.889 7.14 0.0 0 0.00 0.00 0.00 0.00
05/03/26 4:21:33 AM 32 0.0 3.0 53 86 71.0 55.3 29.888 7.14 0.0 0 0.00 0.00 0.00 0.00
05/03/26 4:22:25 AM 38 0.0 3.0 53 86 71.0 55.4 29.886 7.14 0.0 0 0.00 0.00 0.00 0.00
05/03/26 4:23:16 AM 31 0.0 3.0 53 86 71.0 55.4 29.885 7.14 0.0 0 0.00 0.00 0.00 0.00
05/03/26 4:24:26 AM 36 0.0 3.0 53 86 71.0 55.4 29.884 7.14 0.0 0 0.00 0.00 0.00 0.00
05/03/26 4:25:18 AM 34 0.0 3.0 53 86 71.0 55.5 29.886 7.14 0.0 0 0.00 0.00 0.00 0.00
05/03/26 4:26:31 AM 32 0.0 3.0 53 86 71.0 55.5 29.885 7.14 0.0 0 0.00 0.00 0.00 0.00
05/03/26 4:27:22 AM 36 0.0 3.0 53 86 71.0 55.6 29.885 7.14 0.0 0 0.00 0.00 0.00 0.00
05/03/26 4:28:35 AM 34 0.0 3.0 53 86 71.0 55.7 29.886 7.14 0.0 0 0.00 0.00 0.00 0.00
05/03/26 4:29:21 AM 36 0.0 3.0 53 86 71.0 55.7 29.886 7.14 0.0 0 0.00 0.00 0.00 0.00
05/03/26 4:30:37 AM 34 0.0 3.0 53 86 71.0 55.7 29.885 7.14 0.0 0 0.00 0.00 0.00 0.00
05/03/26 4:31:26 AM 38 1.0 3.0 53 86 71.0 55.7 29.884 7.14 0.0 0 0.00 0.00 0.00 0.00
05/03/26 4:32:17 AM 32 1.0 3.0 53 86 71.0 55.8 29.884 7.14 0.0 0 0.00 0.00 0.00 0.00
05/03/26 4:33:30 AM 34 0.0 3.0 53 86 71.0 55.8 29.887 7.14 0.0 0 0.00 0.00 0.00 0.00
05/03/26 4:34:25 AM 31 0.0 3.0 53 86 71.0 55.9 29.886 7.14 0.0 0 0.00 0.00 0.00 0.00
05/03/26 4:35:32 AM 38 0.0 3.0 53 86 71.1 55.9 29.886 7.14 0.0 0 0.00 0.00 0.00 0.00
05/03/26 4:36:23 AM 35 0.0 3.0 53 86 71.0 55.9 29.887 7.14 0.0 0 0.00 0.00 0.00 0.00
05/03/26 4:37:36 AM 38 2.0 3.0 53 87 71.1 55.9 29.884 7.14 0.0 0 0.00 0.00 0.00 0.00
05/03/26 4:38:28 AM 36 2.0 4.0 53 87 71.1 56.0 29.888 7.14 0.0 0 0.00 0.00 0.00 0.00
05/03/26 4:39:20 AM 36 1.0 4.0 53 87 71.1 56.0 29.887 7.14 0.0 0 0.00 0.00 0.00 0.00
05/03/26 4:40:30 AM 35 3.0 4.0 53 87 71.0 56.0 29.885 7.14 0.0 0 0.00 0.00 0.00 0.00
05/03/26 4:41:21 AM 35 1.0 4.0 53 87 71.0 56.1 29.887 7.14 0.0 0 0.00 0.00 0.00 0.00
05/03/26 4:42:34 AM 34 2.0 4.0 53 87 71.0 56.1 29.889 7.14 0.0 0 0.00 0.00 0.00 0.00
05/03/26 4:43:26 AM 38 2.0 4.0 53 87 71.0 56.2 29.887 7.14 0.0 0 0.00 0.00 0.00 0.00
05/03/26 4:44:18 AM 32 2.0 4.0 53 87 71.1 56.2 29.888 7.14 0.0 0 0.00 0.00 0.00 0.00
05/03/26 4:45:27 AM 32 2.0 4.0 53 87 71.1 56.2 29.887 7.14 0.0 0 0.00 0.00 0.00 0.00
05/03/26 4:46:19 AM 36 0.0 4.0 53 87 71.1 56.3 29.885 7.14 0.0 0 0.00 0.00 0.00 0.00
05/03/26 4:47:32 AM 36 1.0 4.0 53 87 71.0 56.3 29.886 7.14 0.0 0 0.00 0.00 0.00 0.00
05/03/26 4:48:24 AM 35 2.0 4.0 53 87 71.0 56.3 29.885 7.14 0.0 0 0.00 0.00 0.00 0.00
05/03/26 4:49:37 AM 36 2.0 4.0 53 87 71.0 56.3 29.885 7.14 0.0 0 0.00 0.00 0.00 0.00
05/03/26 4:50:28 AM 36 4.0 4.0 53 87 71.0 56.4 29.886 7.14 0.0 0 0.00 0.00 0.00 0.00
05/03/26 4:51:35 AM 35 3.0 4.0 53 87 71.0 56.4 29.887 7.14 0.0 0 0.00 0.00 0.00 0.00
05/03/26 4:52:27 AM 35 2.0 4.0 53 87 71.0 56.4 29.887 7.14 0.0 0 0.00 0.00 0.00 0.00
05/03/26 4:53:19 AM 35 1.0 4.0 53 87 71.1 56.4 29.885 7.14 0.0 0 0.00 0.00 0.00 0.00
05/03/26 4:54:28 AM 36 0.0 4.0 53 87 71.0 56.4 29.887 7.14 0.0 0 0.00 0.00 0.00 0.00
05/03/26 4:55:23 AM 38 2.0 4.0 53 87 71.0 56.4 29.885 7.14 0.0 0 0.00 0.00 0.00 0.00
05/03/26 4:56:30 AM 36 1.0 4.0 53 87 71.0 56.4 29.883 7.14 0.0 0 0.00 0.00 0.00 0.00
05/03/26 4:57:22 AM 32 1.0 4.0 53 87 71.0 56.4 29.885 7.14 0.0 0 0.00 0.00 0.00 0.00
05/03/26 4:58:35 AM 32 0.0 4.0 53 87 71.0 56.4 29.885 7.14 0.0 0 0.00 0.00 0.00 0.00
05/03/26 4:59:29 AM 35 1.0 4.0 53 87 71.0 56.4 29.884 7.14 0.0 0 0.00 0.00 0.00 0.00
05/03/26 5:00:21 AM 35 1.0 4.0 53 87 71.0 56.4 29.885 7.14 0.0 0 0.00 0.00 0.00 0.00
05/03/26 5:01:31 AM 36 0.0 4.0 53 87 71.0 56.4 29.882 7.14 0.0 0 0.00 0.00 0.00 0.00
05/03/26 5:02:23 AM 36 0.0 4.0 53 87 71.0 56.5 29.884 7.14 0.0 0 0.00 0.00 0.00 0.00
05/03/26 5:03:36 AM 35 0.0 4.0 53 87 71.0 56.4 29.885 7.14 0.0 0 0.00 0.00 0.00 0.00
05/03/26 5:04:27 AM 36 0.0 4.0 53 87 71.0 56.5 29.886 7.14 0.0 0 0.00 0.00 0.00 0.00
05/03/26 5:05:19 AM 36 0.0 4.0 53 87 71.0 56.5 29.886 7.14 0.0 0 0.00 0.00 0.00 0.00
05/03/26 5:06:29 AM 36 2.0 4.0 53 87 70.9 56.5 29.883 7.14 0.0 0 0.00 0.00 0.00 0.00
05/03/26 5:07:18 AM 38 2.0 4.0 53 87 70.8 56.5 29.885 7.14 0.0 0 0.00 0.00 0.00 0.00
05/03/26 5:08:31 AM 36 2.0 4.0 54 87 70.7 56.5 29.883 7.14 0.0 0 0.00 0.00 0.00 0.00
05/03/26 5:09:22 AM 36 2.0 4.0 54 87 70.6 56.6 29.886 7.14 0.0 0 0.00 0.00 0.00 0.00
05/03/26 5:10:35 AM 35 2.0 4.0 54 87 70.5 56.6 29.884 7.14 0.0 0 0.00 0.00 0.00 0.00
05/03/26 5:11:27 AM 38 1.0 4.0 54 87 70.4 56.6 29.887 7.14 0.0 0 0.00 0.00 0.00 0.00
05/03/26 5:12:16 AM 36 0.0 4.0 54 87 70.3 56.6 29.886 7.14 0.0 0 0.00 0.00 0.00 0.00
05/03/26 5:13:29 AM 36 1.0 4.0 54 87 70.2 56.6 29.884 7.14 0.0 0 0.00 0.00 0.00 0.00
05/03/26 5:14:20 AM 36 0.0 4.0 55 87 70.2 56.6 29.883 7.14 0.0 0 0.00 0.00 0.00 0.00
05/03/26 5:15:33 AM 34 0.0 4.0 55 87 70.0 56.6 29.884 7.14 0.0 0 0.00 0.00 0.00 0.00
05/03/26 5:16:25 AM 36 0.0 4.0 55 87 70.0 56.6 29.885 7.14 0.0 0 0.00 0.00 0.00 0.00
05/03/26 5:17:17 AM 36 0.0 4.0 55 87 69.8 56.6 29.884 7.14 0.0 0 0.00 0.00 0.00 0.00
05/03/26 5:18:27 AM 34 2.0 4.0 55 87 69.8 56.6 29.884 7.14 0.0 0 0.00 0.00 0.00 0.00
05/03/26 5:19:18 AM 30 3.0 4.0 55 87 69.7 56.6 29.884 7.14 0.0 0 0.00 0.00 0.00 0.00
05/03/26 5:20:31 AM 32 3.0 4.0 56 87 69.6 56.7 29.883 7.14 0.0 0 0.00 0.00 0.00 0.00
05/03/26 5:21:23 AM 37 3.0 4.0 56 87 69.5 56.7 29.883 7.14 0.0 0 0.00 0.00 0.00 0.00
05/03/26 5:22:33 AM 36 3.0 4.0 56 87 69.4 56.6 29.882 7.14 0.0 0 0.00 0.00 0.00 0.00
05/03/26 5:23:25 AM 37 2.0 4.0 56 87 69.3 56.6 29.884 7.14 0.0 0 0.00 0.00 0.00 0.00
05/03/26 5:24:38 AM 31 2.0 4.0 56 87 69.3 56.6 29.883 7.14 0.0 0 0.00 0.00 0.00 0.00
05/03/26 5:25:29 AM 29 2.0 4.0 56 87 69.2 56.6 29.883 7.14 0.0 0 0.00 0.00 0.00 0.00
05/03/26 5:26:21 AM 36 2.0 4.0 56 87 69.1 56.7 29.883 7.14 0.0 0 0.00 0.00 0.00 0.00
05/03/26 5:27:34 AM 34 1.0 4.0 56 87 69.1 56.6 29.885 7.14 0.0 0 0.00 0.00 0.00 0.00
05/03/26 5:28:23 AM 36 2.0 4.0 56 87 69.0 56.7 29.885 7.14 0.0 0 0.00 0.00 0.00 0.00
05/03/26 5:29:36 AM 34 2.0 4.0 57 87 68.9 56.7 29.884 7.14 0.0 0 0.00 0.00 0.00 0.00
05/03/26 5:30:30 AM 38 3.0 4.0 57 87 68.9 56.7 29.886 7.14 0.0 0 0.00 0.00 0.00 0.00
05/03/26 5:31:22 AM 36 3.0 4.0 57 87 68.8 56.6 29.886 7.14 0.0 0 0.00 0.00 0.00 0.00
05/03/26 5:32:35 AM 38 4.0 4.0 57 87 68.8 56.6 29.885 7.14 0.0 0 0.00 0.00 0.00 0.00
05/03/26 5:33:24 AM 32 2.0 4.0 57 87 68.7 56.6 29.885 7.14 0.0 0 0.00 0.00 0.00 0.00
05/03/26 5:34:34 AM 38 3.0 4.0 57 87 68.6 56.6 29.886 7.14 0.0 0 0.00 0.00 0.00 0.00
05/03/26 5:35:25 AM 39 2.0 4.0 57 87 68.6 56.6 29.884 7.14 0.0 0 0.00 0.00 0.00 0.00
05/03/26 5:36:17 AM 38 4.0 5.0 57 87 68.5 56.6 29.884 7.14 0.0 0 0.00 0.00 0.00 0.00
05/03/26 5:37:30 AM 35 3.0 5.0 57 87 68.5 56.6 29.886 7.14 0.0 0 0.00 0.00 0.00 0.00
05/03/26 5:38:22 AM 31 3.0 5.0 57 87 68.4 56.6 29.884 7.14 0.0 0 0.00 0.00 0.00 0.00
05/03/26 5:39:32 AM 36 4.0 5.0 57 87 68.4 56.6 29.886 7.14 0.0 0 0.00 0.00 0.00 0.00
05/03/26 5:40:23 AM 38 3.0 5.0 57 87 68.3 56.6 29.887 7.14 0.0 0 0.00 0.00 0.00 0.00
05/03/26 5:41:36 AM 38 3.0 5.0 57 87 68.3 56.6 29.888 7.14 0.0 0 0.00 0.00 0.00 0.00
05/03/26 5:42:28 AM 38 2.0 5.0 58 87 68.2 56.6 29.886 7.14 0.0 0 0.00 0.00 0.00 0.00
05/03/26 5:43:20 AM 36 4.0 5.0 58 87 68.2 56.6 29.887 7.14 0.0 0 0.00 0.00 0.00 0.00
05/03/26 5:44:26 AM 38 4.0 5.0 58 87 68.1 56.6 29.887 7.14 0.0 0 0.00 0.00 0.00 0.00
05/03/26 5:45:21 AM 36 5.0 6.0 58 87 68.1 56.6 29.886 7.14 0.0 0 0.00 0.00 0.00 0.00
05/03/26 5:46:31 AM 35 2.0 6.0 58 87 68.1 56.6 29.886 7.14 0.0 0 0.00 0.00 0.00 0.00
05/03/26 5:47:23 AM 38 3.0 6.0 58 87 68.0 56.6 29.887 7.14 0.0 0 0.00 0.00 0.00 0.00
05/03/26 5:48:36 AM 32 3.0 6.0 58 87 67.9 56.6 29.889 7.14 0.0 0 0.00 0.00 0.00 0.00
05/03/26 5:49:27 AM 35 5.0 6.0 58 87 67.9 56.6 29.888 7.14 0.0 0 0.00 0.00 0.00 0.00
05/03/26 5:50:16 AM 36 2.0 6.0 58 87 67.9 56.6 29.889 7.14 0.0 0 0.00 0.00 0.00 0.00
05/03/26 5:51:29 AM 35 2.0 6.0 58 87 67.8 56.6 29.889 7.14 0.0 0 0.00 0.00 0.00 0.00
05/03/26 5:52:21 AM 38 3.0 6.0 58 87 67.8 56.6 29.890 7.14 0.0 0 0.00 0.00 0.00 0.00
05/03/26 5:53:34 AM 37 3.0 6.0 58 87 67.8 56.6 29.891 7.14 0.0 0 0.00 0.00 0.00 0.00
05/03/26 5:54:25 AM 35 2.0 6.0 58 87 67.7 56.6 29.895 7.14 0.0 0 0.00 0.00 0.00 0.00
05/03/26 5:55:35 AM 35 2.0 6.0 58 87 67.7 56.7 29.895 7.14 0.0 0 0.00 0.00 0.00 0.00
05/03/26 5:56:27 AM 38 1.0 6.0 59 87 67.7 56.7 29.895 7.14 0.0 0 0.00 0.00 0.00 0.00
05/03/26 5:57:19 AM 32 2.0 6.0 59 87 67.6 56.7 29.898 7.14 0.0 0 0.00 0.00 0.00 0.00
05/03/26 5:58:32 AM 35 1.0 6.0 59 87 67.6 56.7 29.901 7.14 0.0 0 0.00 0.00 0.00 0.00
05/03/26 5:59:24 AM 35 0.0 6.0 59 87 67.6 56.7 29.897 7.14 0.0 0 0.00 0.00 0.00 0.00
05/03/26 6:00:33 AM 31 0.0 6.0 59 87 67.6 56.7 29.901 7.14 0.0 0 0.00 0.00 0.00 0.00
05/03/26 6:01:22 AM 34 0.0 6.0 59 87 67.5 56.7 29.903 7.14 0.0 0 0.00 0.00 0.00 0.00
05/03/26 6:02:35 AM 37 0.0 6.0 59 87 67.5 56.7 29.904 7.14 0.0 0 0.00 0.00 0.00 0.00
05/03/26 6:03:27 AM 36 0.0 6.0 59 87 67.5 56.7 29.903 7.14 0.0 0 0.00 0.00 0.00 0.00
05/03/26 6:04:19 AM 38 0.0 6.0 59 87 67.4 56.7 29.903 7.14 0.0 0 0.00 0.00 0.00 0.00
05/03/26 6:05:32 AM 36 0.0 6.0 59 87 67.4 56.7 29.906 7.14 0.0 0 0.00 0.00 0.00 0.00
05/03/26 6:06:20 AM 38 0.0 6.0 59 87 67.4 56.8 29.908 7.14 0.0 0 0.00 0.00 0.00 0.00
05/03/26 6:07:30 AM 36 0.0 6.0 59 87 67.4 56.7 29.906 7.14 0.0 0 0.00 0.00 0.00 0.00
05/03/26 6:08:22 AM 36 0.0 6.0 59 87 67.3 56.8 29.907 7.14 0.0 0 0.00 0.00 0.00 0.00
05/03/26 6:09:26 AM 31 0.0 6.0 59 87 67.3 56.8 29.908 7.14 0.0 0 0.00 0.00 0.00 0.00
05/03/26 6:10:18 AM 37 0.0 6.0 59 87 67.2 56.8 29.908 7.14 0.0 0 0.00 0.00 0.00 0.00
05/03/26 6:11:28 AM 36 0.0 6.0 59 87 67.2 56.8 29.909 7.14 0.0 0 0.00 0.00 0.00 0.00
05/03/26 6:12:19 AM 35 0.0 6.0 59 87 67.2 56.8 29.910 7.14 0.0 0 0.00 0.00 0.00 0.00
05/03/26 6:13:32 AM 38 0.0 6.0 59 87 67.2 56.8 29.908 7.14 0.0 0 0.00 0.00 0.00 0.00
05/03/26 6:14:24 AM 36 0.0 6.0 59 87 67.2 56.8 29.910 7.14 0.0 0 0.00 0.00 0.00 0.00
05/03/26 6:15:37 AM 38 0.0 6.0 60 87 67.1 56.8 29.909 7.14 0.0 0 0.00 0.00 0.00 0.00
05/03/26 6:16:29 AM 38 0.0 6.0 60 87 67.1 56.8 29.908 7.14 0.0 0 0.00 0.00 0.00 0.00
05/03/26 6:17:18 AM 32 0.0 6.0 60 87 67.1 56.8 29.909 7.14 0.0 0 0.00 0.00 0.00 0.00
05/03/26 6:18:28 AM 37 0.0 6.0 60 87 67.0 56.8 29.908 7.14 0.0 0 0.00 0.00 0.00 0.00
05/03/26 6:19:22 AM 36 0.0 6.0 60 87 67.1 56.8 29.908 7.14 0.0 0 0.00 0.00 0.00 0.00
05/03/26 6:20:32 AM 35 0.0 6.0 60 87 67.0 56.8 29.913 7.14 0.0 0 0.00 0.00 0.00 0.00
05/03/26 6:21:27 AM 36 0.0 6.0 60 87 67.0 56.8 29.908 7.14 0.0 0 0.00 0.00 0.00 0.00
05/03/26 6:22:34 AM 36 0.0 6.0 60 87 66.9 56.9 29.910 7.14 0.0 0 0.00 0.00 0.00 0.00
05/03/26 6:23:26 AM 38 0.0 6.0 60 87 66.9 56.9 29.911 7.14 0.0 0 0.00 0.00 0.00 0.00
05/03/26 6:24:18 AM 36 0.0 6.0 60 87 66.9 56.9 29.909 7.14 0.0 0 0.00 0.00 0.00 0.00
05/03/26 6:25:31 AM 38 0.0 6.0 60 87 66.8 56.9 29.909 7.14 0.0 0 0.00 0.00 0.00 0.00
05/03/26 6:26:22 AM 35 0.0 6.0 60 87 66.8 56.9 29.911 7.14 0.0 0 0.00 0.00 0.00 0.00
05/03/26 6:27:32 AM 38 0.0 6.0 60 87 66.8 56.9 29.910 7.14 0.0 0 0.00 0.00 0.00 0.00
05/03/26 6:28:24 AM 32 0.0 6.0 60 87 66.8 56.9 29.912 7.14 0.0 0 0.00 0.00 0.00 0.00
05/03/26 6:29:37 AM 35 0.0 6.0 60 87 66.8 56.9 29.910 7.14 0.0 0 0.00 0.00 0.00 0.00
05/03/26 6:30:50 AM 34 0.0 6.0 60 87 66.8 56.9 29.911 7.14 0.0 0 0.00 0.00 0.00 0.00
05/03/26 6:31:20 AM 36 0.0 6.0 60 87 66.8 56.9 29.912 7.14 0.0 0 0.00 0.00 0.00 0.00
05/03/26 6:32:33 AM 34 0.0 6.0 61 87 66.8 56.9 29.910 7.14 0.0 0 0.00 0.00 0.00 0.00
05/03/26 6:33:22 AM 37 0.0 6.0 61 87 66.7 56.9 29.910 7.14 0.0 0 0.00 0.00 0.00 0.00
05/03/26 6:34:35 AM 36 0.0 6.0 61 87 66.8 56.9 29.914 7.14 0.0 0 0.00 0.00 0.00 0.00
05/03/26 6:35:27 AM 32 2.0 6.0 61 87 66.7 56.9 29.910 7.14 0.0 5 0.00 0.00 0.00 0.00
05/03/26 6:36:19 AM 31 2.0 6.0 61 87 66.7 56.9 29.910 7.14 0.0 5 0.00 0.00 0.00 0.00
05/03/26 6:37:35 AM 36 4.0 6.0 61 87 66.6 56.9 29.911 7.14 0.0 5 0.00 0.00 0.00 0.00
05/03/26 6:38:23 AM 30 3.0 6.0 61 87 66.7 56.9 29.908 7.14 0.0 5 0.00 0.00 0.00 0.00
05/03/26 6:39:33 AM 36 2.0 6.0 61 87 66.6 56.9 29.910 7.14 0.0 5 0.00 0.00 0.00 0.00
05/03/26 6:40:25 AM 35 2.0 6.0 61 87 66.6 57.0 29.909 7.14 0.0 5 0.00 0.00 0.00 0.00
05/03/26 6:41:35 AM 34 1.0 6.0 61 87 66.6 56.9 29.910 7.14 0.0 5 0.00 0.00 0.00 0.00
05/03/26 6:42:27 AM 36 1.0 6.0 61 87 66.6 57.0 29.908 7.14 0.0 7 0.00 0.00 0.00 0.00
05/03/26 6:43:18 AM 36 1.0 6.0 61 87 66.5 57.0 29.909 7.14 0.0 7 0.00 0.00 0.00 0.00
05/03/26 6:44:28 AM 34 0.0 6.0 61 87 66.5 57.0 29.909 7.14 0.0 7 0.00 0.00 0.00 0.00
05/03/26 6:45:23 AM 31 0.0 6.0 61 87 66.6 57.0 29.907 7.14 0.0 7 0.00 0.00 0.00 0.00
05/03/26 6:46:36 AM 37 0.0 6.0 61 87 66.5 57.0 29.905 7.14 0.0 7 0.00 0.00 0.00 0.00
05/03/26 6:47:25 AM 37 0.0 6.0 61 87 66.5 57.0 29.908 7.14 0.0 7 0.00 0.00 0.00 0.00
05/03/26 6:48:20 AM 38 0.0 6.0 61 87 66.5 57.0 29.907 7.14 0.0 9 0.00 0.00 0.00 0.00
05/03/26 6:49:27 AM 35 0.0 6.0 61 87 66.5 57.0 29.908 7.14 0.0 9 0.00 0.00 0.00 0.00
05/03/26 6:50:18 AM 35 0.0 6.0 62 87 66.5 57.1 29.905 7.14 0.0 9 0.00 0.00 0.00 0.00
05/03/26 6:51:31 AM 36 0.0 6.0 62 87 66.5 57.1 29.910 7.14 0.0 9 0.00 0.00 0.00 0.00
05/03/26 6:52:23 AM 36 1.0 6.0 62 87 66.5 57.0 29.909 7.14 0.0 9 0.00 0.00 0.00 0.00
05/03/26 6:53:36 AM 35 1.0 6.0 62 87 66.5 57.1 29.912 7.14 0.0 11 0.00 0.00 0.00 0.00
05/03/26 6:54:28 AM 38 1.0 6.0 62 87 66.5 57.1 29.910 7.14 0.0 11 0.00 0.00 0.00 0.00
05/03/26 6:55:17 AM 36 1.0 6.0 62 87 66.5 57.1 29.910 7.14 0.0 11 0.00 0.00 0.00 0.00
05/03/26 6:56:29 AM 35 2.0 6.0 62 87 66.4 57.1 29.912 7.14 0.0 11 0.00 0.00 0.00 0.00
05/03/26 6:57:21 AM 34 1.0 6.0 62 87 66.4 57.1 29.912 7.14 0.0 11 0.00 0.00 0.00 0.00
05/03/26 6:58:34 AM 36 2.0 6.0 62 87 66.4 57.1 29.911 7.14 0.0 12 0.00 0.00 0.00 0.00
05/03/26 6:59:26 AM 32 2.0 6.0 62 87 66.4 57.1 29.912 7.14 0.0 12 0.00 0.00 0.00 0.00
05/03/26 7:00:36 AM 35 3.0 6.0 62 87 66.4 57.1 29.913 7.14 0.0 12 0.00 0.00 0.00 0.00
05/03/26 7:01:28 AM 38 2.0 6.0 62 87 66.4 57.1 29.914 7.14 0.0 11 0.00 0.00 0.00 0.00
05/03/26 7:02:19 AM 31 2.0 6.0 62 87 66.4 57.1 29.915 7.14 0.0 11 0.00 0.00 0.00 0.00
05/03/26 7:03:29 AM 34 2.0 6.0 63 87 66.4 57.1 29.916 7.14 0.0 12 0.00 0.00 0.00 0.00
05/03/26 7:04:24 AM 37 1.0 6.0 63 87 66.3 57.1 29.913 7.14 0.0 12 0.00 0.00 0.00 0.00
05/03/26 7:05:16 AM 36 2.0 6.0 63 87 66.3 57.1 29.914 7.14 0.0 12 0.00 0.00 0.00 0.00
05/03/26 7:06:23 AM 36 3.0 6.0 63 87 66.3 57.1 29.913 7.14 0.0 12 0.00 0.00 0.00 0.00
05/03/26 7:07:33 AM 35 2.0 6.0 63 87 66.3 57.1 29.916 7.14 0.0 12 0.00 0.00 0.00 0.00
05/03/26 7:08:27 AM 36 2.0 6.0 63 87 66.3 57.1 29.916 7.14 0.0 12 0.00 0.00 0.00 0.00
05/03/26 7:09:19 AM 34 2.0 6.0 63 87 66.3 57.1 29.918 7.14 0.0 12 0.00 0.00 0.00 0.00
05/03/26 7:10:29 AM 38 3.0 6.0 63 87 66.3 57.1 29.916 7.14 0.0 12 0.00 0.00 0.00 0.00
05/03/26 7:11:18 AM 36 3.0 6.0 63 87 66.3 57.1 29.919 7.14 0.0 12 0.00 0.00 0.00 0.00
05/03/26 7:12:31 AM 34 4.0 6.0 63 87 66.3 57.0 29.918 7.14 0.0 12 0.00 0.00 0.00 0.00
05/03/26 7:13:23 AM 38 4.0 6.0 63 87 66.3 57.1 29.920 7.14 0.0 12 0.00 0.00 0.00 0.00
05/03/26 7:14:36 AM 31 3.0 6.0 63 87 66.3 57.1 29.918 7.14 0.0 12 0.00 0.00 0.00 0.00
05/03/26 7:15:49 AM 30 2.0 6.0 63 87 66.3 57.1 29.920 7.14 0.0 12 0.00 0.00 0.00 0.00
05/03/26 7:16:22 AM 37 2.0 6.0 63 87 66.3 57.0 29.922 7.14 0.0 12 0.00 0.00 0.00 0.00
05/03/26 7:17:29 AM 35 3.0 6.0 63 87 66.2 57.1 29.921 7.14 0.0 12 0.00 0.00 0.00 0.00
05/03/26 7:18:21 AM 36 1.0 6.0 63 87 66.2 57.1 29.921 7.14 0.0 12 0.00 0.00 0.00 0.00
05/03/26 7:19:34 AM 34 3.0 6.0 63 87 66.2 57.0 29.920 7.14 0.0 14 0.00 0.00 0.00 0.00
05/03/26 7:20:26 AM 36 2.0 6.0 63 87 66.2 57.0 29.918 7.14 0.0 14 0.00 0.00 0.00 0.00
05/03/26 7:21:17 AM 36 2.0 6.0 63 87 66.2 57.0 29.921 7.14 0.0 14 0.00 0.00 0.00 0.00
05/03/26 7:22:27 AM 32 3.0 6.0 63 87 66.2 57.0 29.918 7.14 0.0 14 0.00 0.00 0.00 0.00
05/03/26 7:23:19 AM 37 2.0 6.0 63 87 66.1 57.0 29.921 7.14 0.0 14 0.00 0.00 0.00 0.00
05/03/26 7:24:29 AM 35 2.0 6.0 63 87 66.1 57.0 29.918 7.14 0.0 14 0.00 0.00 0.00 0.00
05/03/26 7:25:21 AM 38 3.0 6.0 63 87 66.1 57.0 29.920 7.14 0.0 14 0.00 0.00 0.00 0.00
05/03/26 7:26:34 AM 31 2.0 6.0 63 87 66.1 57.0 29.922 7.14 0.0 16 0.00 0.00 0.00 0.00
05/03/26 7:27:23 AM 36 1.0 6.0 64 87 66.1 57.0 29.920 7.14 0.0 16 0.00 0.00 0.00 0.00
05/03/26 7:28:33 AM 35 1.0 6.0 64 88 66.1 57.0 29.921 7.14 0.0 16 0.00 0.00 0.00 0.00
05/03/26 7:29:27 AM 35 2.0 6.0 64 88 66.1 57.0 29.922 7.14 0.0 16 0.00 0.00 0.00 0.00
05/03/26 7:30:19 AM 36 1.0 6.0 64 88 66.1 57.0 29.919 7.14 0.0 16 0.00 0.00 0.00 0.00
05/03/26 7:31:32 AM 34 2.0 6.0 64 88 66.1 57.0 29.918 7.14 0.0 16 0.00 0.00 0.00 0.00
05/03/26 7:32:24 AM 38 1.0 6.0 64 88 66.0 57.0 29.919 7.14 0.0 16 0.00 0.00 0.00 0.00
05/03/26 7:33:31 AM 36 3.0 6.0 64 88 66.1 57.0 29.917 7.14 0.0 18 0.00 0.00 0.00 0.00
05/03/26 7:34:23 AM 32 2.0 6.0 64 88 66.0 56.9 29.920 7.14 0.0 18 0.00 0.00 0.00 0.00
05/03/26 7:35:18 AM 38 1.0 6.0 64 87 66.0 56.9 29.917 7.14 0.0 16 0.00 0.00 0.00 0.00
05/03/26 7:36:30 AM 35 0.0 6.0 64 87 66.0 56.9 29.918 7.14 0.0 18 0.00 0.00 0.00 0.00
05/03/26 7:37:22 AM 38 1.0 6.0 64 87 66.0 56.9 29.917 7.14 0.0 18 0.00 0.00 0.00 0.00
05/03/26 7:38:29 AM 31 1.0 6.0 64 87 66.0 56.9 29.920 7.14 0.0 18 0.00 0.00 0.00 0.00
05/03/26 7:39:21 AM 30 1.0 6.0 64 87 66.0 56.9 29.917 7.14 0.0 19 0.00 0.00 0.00 0.00
05/03/26 7:40:34 AM 35 0.0 6.0 64 87 66.0 56.9 29.918 7.14 0.0 19 0.00 0.00 0.00 0.00
05/03/26 7:41:29 AM 36 4.0 6.0 64 87 65.9 56.9 29.919 7.14 0.0 19 0.00 0.00 0.00 0.00
05/03/26 7:42:17 AM 37 3.0 6.0 64 87 65.9 56.9 29.922 7.14 0.0 19 0.00 0.00 0.00 0.00
05/03/26 7:43:28 AM 36 2.0 6.0 64 87 65.9 56.9 29.920 7.14 0.0 19 0.00 0.00 0.00 0.00
05/03/26 7:44:19 AM 36 1.0 6.0 64 88 65.9 56.9 29.924 7.14 0.0 19 0.00 0.00 0.00 0.00
05/03/26 7:45:32 AM 36 2.0 6.0 64 88 66.0 56.9 29.920 7.14 0.0 19 0.00 0.00 0.00 0.00
05/03/26 7:46:24 AM 38 3.0 6.0 64 88 65.9 56.9 29.920 7.14 0.0 19 0.00 0.00 0.00 0.00
05/03/26 7:47:34 AM 38 1.0 6.0 64 88 65.9 56.9 29.923 7.14 0.0 19 0.00 0.00 0.00 0.00
05/03/26 7:48:26 AM 35 2.0 6.0 64 88 65.9 57.0 29.922 7.14 0.0 19 0.00 0.00 0.00 0.00
05/03/26 7:49:36 AM 35 2.0 6.0 64 88 65.9 57.0 29.922 7.14 0.0 19 0.00 0.00 0.00 0.00
05/03/26 7:50:28 AM 31 3.0 6.0 64 88 65.9 56.9 29.923 7.14 0.0 19 0.00 0.00 0.00 0.00
05/03/26 7:51:20 AM 31 2.0 6.0 64 88 65.9 57.0 29.922 7.14 0.0 19 0.00 0.00 0.00 0.00
05/03/26 7:52:33 AM 31 1.0 6.0 64 88 65.9 57.0 29.925 7.14 0.0 19 0.00 0.00 0.00 0.00
05/03/26 7:53:24 AM 34 0.0 6.0 64 88 65.8 56.9 29.925 7.14 0.0 21 0.00 0.00 0.00 0.00
05/03/26 7:54:31 AM 36 0.0 6.0 65 88 65.8 57.0 29.924 7.14 0.0 21 0.00 0.00 0.00 0.00
05/03/26 7:55:23 AM 38 3.0 6.0 65 88 65.8 57.0 29.923 7.14 0.0 21 0.00 0.00 0.00 0.00
05/03/26 7:56:36 AM 36 2.0 6.0 65 88 65.8 57.0 29.926 7.14 0.0 23 0.00 0.00 0.00 0.00
05/03/26 7:57:28 AM 36 0.0 6.0 65 88 65.9 57.0 29.926 7.14 0.0 23 0.00 0.00 0.00 0.00
05/03/26 7:58:20 AM 32 0.0 6.0 65 88 65.8 57.0 29.924 7.14 0.0 23 0.00 0.00 0.00 0.00
05/03/26 7:59:27 AM 38 0.0 6.0 65 88 65.8 57.0 29.925 7.14 0.0 23 0.00 0.00 0.00 0.00
05/03/26 8:00:21 AM 32 3.0 6.0 65 88 65.8 57.0 29.923 7.14 0.0 23 0.00 0.00 0.00 0.00
05/03/26 8:01:34 AM 35 3.0 6.0 65 88 65.7 57.0 29.925 7.14 0.0 23 0.00 0.00 0.00 0.00
05/03/26 8:02:26 AM 31 2.0 6.0 65 88 65.7 57.0 29.925 7.14 0.0 23 0.00 0.00 0.00 0.00
05/03/26 8:03:18 AM 34 2.0 6.0 65 88 65.7 57.0 29.925 7.14 0.0 23 0.00 0.00 0.00 0.00
05/03/26 8:04:31 AM 36 1.0 6.0 65 88 65.7 57.0 29.924 7.14 0.0 23 0.00 0.00 0.00 0.00
05/03/26 8:05:20 AM 35 2.0 6.0 65 88 65.7 57.0 29.925 7.14 0.0 23 0.00 0.00 0.00 0.00
05/03/26 8:06:33 AM 38 2.0 6.0 65 88 65.7 57.0 29.926 7.14 0.0 23 0.00 0.00 0.00 0.00
05/03/26 8:07:25 AM 35 1.0 6.0 65 88 65.7 57.0 29.925 7.14 0.0 23 0.00 0.00 0.00 0.00
05/03/26 8:08:47 AM 32 2.0 6.0 65 88 65.7 57.0 29.924 7.14 0.0 25 0.00 0.00 0.00 0.00
05/03/26 8:09:20 AM 37 0.0 6.0 65 88 65.7 57.0 29.927 7.14 0.0 25 0.00 0.00 0.00 0.00
05/03/26 8:10:27 AM 32 1.0 6.0 65 88 65.7 57.0 29.926 7.14 0.0 25 0.00 0.00 0.00 0.00
05/03/26 8:11:19 AM 38 0.0 6.0 65 88 65.7 57.0 29.928 7.14 0.0 25 0.00 0.00 0.00 0.00
05/03/26 8:12:32 AM 37 0.0 6.0 65 88 65.7 57.0 29.929 7.14 0.0 25 0.00 0.00 0.00 0.00
05/03/26 8:13:24 AM 38 0.0 6.0 65 88 65.6 57.0 29.930 7.14 0.0 25 0.00 0.00 0.00 0.00
05/03/26 8:14:19 AM 38 0.0 6.0 66 88 65.6 57.0 29.929 7.14 0.0 25 0.00 0.00 0.00 0.00
05/03/26 8:15:32 AM 38 0.0 6.0 66 88 65.6 57.0 29.928 7.14 0.0 26 0.00 0.00 0.00 0.00
05/03/26 8:16:17 AM 38 0.0 6.0 66 88 65.6 57.0 29.930 7.14 0.0 26 0.00 0.00 0.00 0.00
05/03/26 8:17:30 AM 37 0.0 6.0 66 88 65.6 57.0 29.926 7.14 0.0 26 0.00 0.00 0.00 0.00
05/03/26 8:18:22 AM 37 0.0 6.0 66 88 65.6 57.1 29.929 7.14 0.0 30 0.00 0.00 0.00 0.00
05/03/26 8:19:35 AM 35 0.0 6.0 66 88 65.5 57.1 29.928 7.14 0.0 30 0.00 0.00 0.00 0.00
05/03/26 8:20:27 AM 35 0.0 6.0 66 88 65.5 57.1 29.929 7.14 0.0 32 0.00 0.00 0.00 0.00
05/03/26 8:21:16 AM 36 0.0 6.0 66 88 65.5 57.1 29.929 7.14 0.0 32 0.00 0.00 0.00 0.00
05/03/26 8:22:29 AM 35 0.0 6.0 66 88 65.6 57.1 29.929 7.14 0.0 33 0.00 0.00 0.00 0.00
05/03/26 8:23:21 AM 35 0.0 6.0 66 88 65.5 57.1 29.927 7.14 0.0 33 0.00 0.00 0.00 0.00
05/03/26 8:24:34 AM 35 0.0 6.0 66 88 65.5 57.1 29.929 7.14 0.0 33 0.00 0.00 0.00 0.00
05/03/26 8:25:25 AM 35 0.0 6.0 66 88 65.5 57.1 29.929 7.14 0.0 33 0.00 0.00 0.00 0.00
05/03/26 8:26:32 AM 35 0.0 6.0 66 88 65.5 57.1 29.928 7.14 0.0 33 0.00 0.00 0.00 0.00
05/03/26 8:27:24 AM 38 2.0 6.0 66 88 65.5 57.1 29.929 7.14 0.0 37 0.00 0.00 0.00 0.00
05/03/26 8:28:37 AM 36 1.0 6.0 66 88 65.5 57.1 29.930 7.14 0.0 39 0.00 0.00 0.00 0.00
05/03/26 8:29:26 AM 38 1.0 6.0 66 88 65.5 57.2 29.930 7.14 0.0 40 0.00 0.00 0.00 0.00
05/03/26 8:30:21 AM 34 0.0 6.0 66 88 65.5 57.2 29.929 7.14 0.0 44 0.00 0.00 0.00 0.00
05/03/26 8:31:31 AM 35 0.0 6.0 66 88 65.5 57.2 29.931 7.14 0.0 46 0.00 0.00 0.00 0.00
05/03/26 8:32:20 AM 39 0.0 6.0 66 88 65.5 57.2 29.931 7.14 0.0 46 0.00 0.00 0.00 0.00
05/03/26 8:33:33 AM 32 0.0 6.0 66 88 65.5 57.2 29.933 7.14 0.0 47 0.00 0.00 0.00 0.00
05/03/26 8:34:25 AM 36 0.0 6.0 66 88 65.4 57.2 29.930 7.14 0.0 47 0.00 0.00 0.00 0.00
05/03/26 8:35:16 AM 31 0.0 6.0 66 88 65.4 57.2 29.931 7.14 0.0 47 0.00 0.00 0.00 0.00
05/03/26 8:36:29 AM 32 0.0 6.0 67 88 65.4 57.2 29.931 7.14 0.0 49 0.00 0.00 0.00 0.00
05/03/26 8:37:18 AM 34 0.0 6.0 67 88 65.4 57.2 29.933 7.14 0.0 51 0.00 0.00 0.00 0.00
05/03/26 8:38:31 AM 32 0.0 6.0 67 88 65.4 57.2 29.933 7.14 0.0 51 0.00 0.00 0.00 0.00
05/03/26 8:39:23 AM 36 0.0 6.0 67 88 65.4 57.2 29.932 7.14 0.0 51 0.00 0.00 0.00 0.00
05/03/26 8:40:33 AM 38 0.0 6.0 67 88 65.4 57.3 29.934 7.14 0.0 53 0.00 0.00 0.00 0.00
05/03/26 8:41:25 AM 38 0.0 6.0 67 89 65.4 57.3 29.933 7.14 0.0 53 0.00 0.00 0.00 0.00
05/03/26 8:42:32 AM 32 0.0 6.0 67 88 65.4 57.3 29.937 7.14 0.0 53 0.00 0.00 0.00 0.00
05/03/26 8:43:24 AM 36 0.0 6.0 67 89 65.3 57.3 29.935 7.14 0.0 53 0.00 0.00 0.00 0.00
05/03/26 8:44:37 AM 38 0.0 6.0 67 89 65.4 57.3 29.931 7.14 0.0 53 0.00 0.00 0.00 0.00
05/03/26 8:45:32 AM 32 0.0 6.0 67 89 65.4 57.3 29.934 7.14 0.0 53 0.00 0.00 0.00 0.00
05/03/26 8:46:20 AM 36 0.0 6.0 67 89 65.4 57.3 29.931 7.14 0.0 53 0.00 0.00 0.00 0.00
05/03/26 8:47:33 AM 36 0.0 6.0 67 89 65.4 57.3 29.929 7.14 0.0 53 0.00 0.00 0.00 0.00
05/03/26 8:48:22 AM 38 0.0 6.0 67 89 65.3 57.3 29.928 7.14 0.0 56 0.00 0.00 0.00 0.00
05/03/26 8:49:35 AM 38 0.0 6.0 67 89 65.3 57.4 29.927 7.14 0.0 58 0.00 0.00 0.00 0.00
05/03/26 8:50:27 AM 38 0.0 6.0 67 89 65.3 57.4 29.929 7.14 0.0 60 0.00 0.00 0.00 0.00
05/03/26 8:51:19 AM 39 0.0 6.0 67 89 65.3 57.4 29.928 7.14 0.0 62 0.00 0.00 0.00 0.00
05/03/26 8:52:32 AM 38 0.0 6.0 67 89 65.3 57.4 29.927 7.14 0.0 67 0.00 0.00 0.00 0.00
05/03/26 8:53:18 AM 38 0.0 6.0 67 89 65.3 57.4 29.932 7.14 0.0 70 0.00 0.00 0.00 0.00
05/03/26 8:54:31 AM 38 0.0 6.0 67 89 65.3 57.4 29.928 7.14 0.0 77 0.00 0.00 0.00 0.00
05/03/26 8:55:25 AM 32 0.0 6.0 67 89 65.3 57.5 29.928 7.14 0.0 77 0.00 0.00 0.00 0.00
05/03/26 8:56:35 AM 32 0.0 6.0 67 89 65.2 57.5 29.928 7.14 0.0 83 0.00 0.00 0.00 0.00
05/03/26 8:57:27 AM 38 0.0 6.0 67 89 65.3 57.5 29.931 7.14 0.0 83 0.00 0.00 0.00 0.00
05/03/26 8:58:19 AM 38 1.0 6.0 67 89 65.3 57.5 29.927 7.14 0.0 90 0.00 0.00 0.00 0.00
05/03/26 8:59:26 AM 31 3.0 6.0 67 89 65.2 57.5 29.926 7.14 0.0 93 0.00 0.00 0.00 0.00
05/03/26 9:00:21 AM 37 1.0 6.0 67 89 65.3 57.5 29.929 7.14 0.0 93 0.00 0.00 0.00 0.00
05/03/26 9:01:34 AM 31 3.0 6.0 67 89 65.3 57.5 29.930 7.14 0.0 98 0.00 0.00 0.00 0.00
05/03/26 9:02:26 AM 32 2.0 6.0 67 89 65.3 57.5 29.925 7.14 0.0 98 0.00 0.00 0.00 0.00
05/03/26 9:03:18 AM 36 1.0 6.0 67 89 65.2 57.6 29.927 7.14 0.0 102 0.00 0.00 0.00 0.00
05/03/26 9:04:28 AM 35 2.0 6.0 68 89 65.2 57.6 29.928 7.14 0.0 104 0.00 0.00 0.00 0.00
05/03/26 9:05:19 AM 36 1.0 6.0 68 89 65.2 57.6 29.930 7.14 0.0 104 0.00 0.00 0.00 0.00
05/03/26 9:06:29 AM 37 1.0 6.0 68 89 65.3 57.6 29.928 7.14 0.0 104 0.00 0.00 0.00 0.00
05/03/26 9:07:24 AM 34 2.0 6.0 68 89 65.3 57.6 29.929 7.14 0.0 102 0.00 0.00 0.00 0.00
05/03/26 9:08:34 AM 38 2.0 6.0 68 89 65.3 57.6 29.932 7.14 0.0 102 0.00 0.00 0.00 0.00
05/03/26 9:09:23 AM 32 3.0 6.0 68 89 65.3 57.6 29.932 7.14 0.0 102 0.00 0.00 0.00 0.00
05/03/26 9:10:36 AM 38 3.0 6.0 68 89 65.3 57.6 29.932 7.14 0.0 102 0.00 0.00 0.00 0.00
05/03/26 9:11:25 AM 31 2.0 6.0 68 89 65.3 57.6 29.934 7.14 0.0 102 0.00 0.00 0.00 0.00
05/03/26 9:12:17 AM 36 1.0 6.0 68 89 65.3 57.6 29.932 7.14 0.0 102 0.00 0.00 0.00 0.00
05/03/26 9:13:30 AM 31 2.0 6.0 68 89 65.3 57.6 29.934 7.14 0.0 100 0.00 0.00 0.00 0.00
05/03/26 9:14:25 AM 38 2.0 6.0 68 89 65.3 57.6 29.938 7.14 0.0 100 0.00 0.00 0.00 0.00
05/03/26 9:15:32 AM 38 3.0 6.0 68 89 65.3 57.7 29.936 7.14 0.0 98 0.00 0.00 0.00 0.00
05/03/26 9:16:23 AM 38 3.0 6.0 68 89 65.3 57.7 29.935 7.14 0.0 97 0.00 0.00 0.00 0.00
05/03/26 9:17:37 AM 38 3.0 6.0 68 89 65.3 57.7 29.933 7.14 0.0 98 0.00 0.00 0.00 0.00
05/03/26 9:18:29 AM 36 0.0 6.0 68 89 65.4 57.7 29.933 7.14 0.0 98 0.00 0.00 0.00 0.00
05/03/26 9:19:20 AM 35 2.0 6.0 68 89 65.3 57.8 29.934 7.14 0.0 98 0.00 0.00 0.00 0.00
05/03/26 9:20:27 AM 38 0.0 6.0 68 89 65.4 57.8 29.930 7.14 0.0 100 0.00 0.00 0.00 0.00
05/03/26 9:21:19 AM 32 0.0 6.0 68 89 65.4 57.8 29.931 7.14 0.0 102 0.00 0.00 0.00 0.00
05/03/26 9:22:32 AM 39 3.0 6.0 68 89 65.4 57.9 29.932 7.14 0.0 104 0.00 0.00 0.00 0.00
05/03/26 9:23:24 AM 38 2.0 6.0 68 89 65.4 57.9 29.934 7.14 0.0 105 0.00 0.00 0.00 0.00
05/03/26 9:24:34 AM 35 1.0 6.0 68 89 65.4 57.9 29.931 7.14 0.0 107 0.00 0.00 0.00 0.00
05/03/26 9:25:23 AM 36 1.0 6.0 68 89 65.4 57.9 29.932 7.14 0.0 107 0.00 0.00 0.00 0.00
05/03/26 9:26:36 AM 35 1.0 6.0 68 89 65.4 57.9 29.932 7.14 0.5 111 0.00 0.00 0.00 0.00
05/03/26 9:27:28 AM 38 0.0 6.0 68 89 65.4 57.9 29.934 7.14 0.5 114 0.00 0.00 0.00 0.00
05/03/26 9:28:20 AM 35 0.0 6.0 68 89 65.4 57.8 29.935 7.14 0.5 120 0.00 0.00 0.00 0.00
05/03/26 9:29:33 AM 38 0.0 6.0 68 89 65.4 57.8 29.933 7.14 0.5 125 0.00 0.00 0.00 0.00
05/03/26 9:30:28 AM 36 0.0 6.0 68 89 65.4 57.9 29.932 7.14 0.6 130 0.00 0.00 0.00 0.00
05/03/26 9:31:35 AM 38 0.0 6.0 68 89 65.4 57.9 29.931 7.14 0.6 135 0.00 0.00 0.00 0.00
05/03/26 9:32:27 AM 34 1.0 6.0 68 89 65.4 57.9 29.930 7.14 0.6 141 0.00 0.00 0.00 0.00
05/03/26 9:33:22 AM 38 1.0 6.0 68 89 65.4 57.9 29.933 7.14 0.6 148 0.00 0.00 0.00 0.00
05/03/26 9:34:32 AM 35 0.0 6.0 68 89 65.4 58.0 29.932 7.14 0.7 153 0.00 0.00 0.00 0.00
05/03/26 9:35:23 AM 35 0.0 6.0 68 89 65.4 57.9 29.934 7.14 0.7 153 0.00 0.00 0.00 0.00
05/03/26 9:36:33 AM 35 0.0 6.0 68 89 65.4 58.0 29.934 7.14 0.7 160 0.00 0.00 0.00 0.00
05/03/26 9:37:25 AM 38 0.0 6.0 68 89 65.4 58.0 29.935 7.14 0.7 165 0.00 0.00 0.00 0.00
05/03/26 9:38:17 AM 38 0.0 6.0 68 89 65.4 58.0 29.932 7.14 0.7 171 0.00 0.00 0.00 0.00
05/03/26 9:39:27 AM 36 0.0 6.0 68 89 65.4 58.1 29.932 7.14 0.7 174 0.00 0.00 0.00 0.00
05/03/26 9:40:22 AM 38 0.0 6.0 68 89 65.4 58.1 29.933 7.14 0.7 172 0.00 0.00 0.00 0.00
05/03/26 9:41:29 AM 38 0.0 6.0 68 89 65.4 58.2 29.935 7.14 0.7 163 0.00 0.00 0.00 0.00
05/03/26 9:42:21 AM 36 0.0 6.0 68 89 65.4 58.2 29.935 7.14 0.7 162 0.00 0.00 0.00 0.00
05/03/26 9:43:34 AM 36 0.0 6.0 68 89 65.4 58.3 29.935 7.14 0.7 163 0.00 0.00 0.00 0.00
05/03/26 9:44:26 AM 34 0.0 6.0 68 89 65.4 58.3 29.934 7.14 0.7 163 0.00 0.00 0.00 0.00
05/03/26 9:45:21 AM 38 0.0 6.0 68 89 65.4 58.4 29.933 7.14 0.7 162 0.00 0.00 0.00 0.00
05/03/26 9:46:30 AM 34 0.0 6.0 68 89 65.4 58.4 29.933 7.14 0.7 160 0.00 0.00 0.00 0.00
05/03/26 9:47:19 AM 31 0.0 6.0 68 89 65.4 58.5 29.932 7.14 0.7 156 0.00 0.00 0.00 0.00
05/03/26 9:48:29 AM 35 2.0 6.0 68 89 65.4 58.5 29.931 7.14 0.7 156 0.00 0.00 0.00 0.00
05/03/26 9:49:21 AM 36 1.0 6.0 68 89 65.4 58.5 29.934 7.14 0.7 151 0.00 0.00 0.00 0.00
05/03/26 9:50:34 AM 36 0.0 6.0 68 88 65.4 58.5 29.934 7.14 0.7 149 0.00 0.00 0.00 0.00
05/03/26 9:51:26 AM 32 0.0 6.0 68 88 65.4 58.5 29.933 7.14 0.7 148 0.00 0.00 0.00 0.00
05/03/26 9:52:33 AM 34 2.0 6.0 68 88 65.4 58.5 29.936 7.14 0.7 146 0.00 0.00 0.00 0.00
05/03/26 9:53:28 AM 35 2.0 6.0 68 88 65.4 58.5 29.935 7.14 0.7 144 0.00 0.00 0.00 0.00
05/03/26 9:54:17 AM 36 1.0 6.0 68 88 65.5 58.5 29.935 7.14 0.7 144 0.00 0.00 0.00 0.00
05/03/26 9:55:30 AM 36 0.0 6.0 68 88 65.4 58.4 29.934 7.14 0.7 146 0.00 0.00 0.00 0.00
05/03/26 9:56:22 AM 32 0.0 6.0 68 88 65.5 58.4 29.937 7.14 0.7 146 0.00 0.00 0.00 0.00
05/03/26 9:57:29 AM 35 0.0 6.0 68 88 65.4 58.4 29.936 7.14 0.7 149 0.00 0.00 0.00 0.00
05/03/26 9:58:21 AM 36 0.0 6.0 68 88 65.5 58.4 29.934 7.14 0.7 149 0.00 0.00 0.00 0.00
05/03/26 9:59:34 AM 32 0.0 6.0 68 88 65.5 58.5 29.935 7.14 0.7 149 0.00 0.00 0.00 0.00
05/03/26 10:00:50 AM 34 0.0 6.0 68 88 65.5 58.5 29.933 7.14 0.7 151 0.00 0.00 0.00 0.00
05/03/26 10:01:20 AM 38 0.0 6.0 68 88 65.4 58.4 29.934 7.14 0.7 151 0.00 0.00 0.00 0.00
05/03/26 10:02:30 AM 36 0.0 6.0 68 88 65.5 58.5 29.935 7.14 0.7 155 0.00 0.00 0.00 0.00
05/03/26 10:03:19 AM 36 0.0 6.0 68 88 65.5 58.5 29.935 7.14 0.7 156 0.00 0.00 0.00 0.00
05/03/26 10:04:35 AM 38 2.0 6.0 68 88 65.4 58.5 29.938 7.14 0.7 155 0.00 0.00 0.00 0.00
05/03/26 10:05:24 AM 38 0.0 6.0 68 88 65.4 58.5 29.938 7.14 0.7 153 0.00 0.00 0.00 0.00
05/03/26 10:06:19 AM 36 0.0 6.0 68 88 65.5 58.6 29.938 7.14 0.7 153 0.00 0.00 0.00 0.00
05/03/26 10:07:29 AM 38 0.0 6.0 68 88 65.4 58.6 29.938 7.14 0.7 151 0.00 0.00 0.00 0.00
05/03/26 10:08:21 AM 35 0.0 6.0 68 88 65.5 58.6 29.941 7.14 0.7 149 0.00 0.00 0.00 0.00
05/03/26 10:09:22 AM 34 0.0 6.0 68 88 65.4 58.7 29.940 7.14 0.7 148 0.00 0.00 0.00 0.00
05/03/26 10:10:32 AM 38 0.0 6.0 68 88 65.5 58.8 29.941 7.14 0.7 144 0.00 0.00 0.00 0.00
05/03/26 10:11:24 AM 36 0.0 6.0 68 88 65.5 58.8 29.942 7.14 0.7 144 0.00 0.00 0.00 0.00
05/03/26 10:12:16 AM 36 3.0 6.0 68 88 65.5 58.8 29.941 7.14 0.7 144 0.00 0.00 0.00 0.00
05/03/26 10:13:29 AM 36 0.0 6.0 68 88 65.5 58.9 29.940 7.14 0.7 144 0.00 0.00 0.00 0.00
05/03/26 10:14:18 AM 35 0.0 6.0 68 88 65.5 58.9 29.943 7.14 0.7 148 0.00 0.00 0.00 0.00
05/03/26 10:15:31 AM 38 2.0 6.0 68 87 65.5 58.9 29.938 7.14 0.7 148 0.00 0.00 0.00 0.00
05/03/26 10:16:23 AM 38 0.0 6.0 68 87 65.5 58.8 29.939 7.14 0.7 149 0.00 0.00 0.00 0.00
05/03/26 10:17:36 AM 35 0.0 6.0 68 87 65.5 58.9 29.939 7.14 0.7 149 0.00 0.00 0.00 0.00
05/03/26 10:18:28 AM 36 0.0 6.0 68 87 65.5 58.9 29.938 7.14 0.7 149 0.00 0.00 0.00 0.00
05/03/26 10:19:19 AM 32 0.0 6.0 68 87 65.5 59.0 29.938 7.14 0.8 151 0.00 0.00 0.00 0.00
05/03/26 10:20:27 AM 38 3.0 6.0 68 87 65.5 59.0 29.941 7.14 0.8 151 0.00 0.00 0.00 0.00
05/03/26 10:21:19 AM 32 2.0 6.0 68 87 65.5 59.0 29.940 7.14 0.8 153 0.00 0.00 0.00 0.00
05/03/26 10:22:32 AM 38 2.0 6.0 68 87 65.5 59.1 29.942 7.14 0.8 153 0.00 0.00 0.00 0.00
05/03/26 10:23:24 AM 35 2.0 6.0 68 87 65.6 59.1 29.941 7.14 0.8 151 0.00 0.00 0.00 0.00
05/03/26 10:24:33 AM 37 2.0 6.0 68 87 65.6 59.1 29.941 7.14 0.8 148 0.00 0.00 0.00 0.00
05/03/26 10:25:22 AM 37 1.0 6.0 68 86 65.6 59.1 29.943 7.14 0.8 148 0.00 0.00 0.00 0.00
05/03/26 10:26:35 AM 38 2.0 6.0 68 86 65.6 59.2 29.942 7.14 0.8 149 0.00 0.00 0.00 0.00

University Police wind advisory reference

For campus closure information please call the campus Emergency Hotline at (909) 537-5999

© All rights reserved. Unauthorized duplication or distribution is prohibited

Never base important decisions on this or any weather information obtained from the Internet

California State University, San Bernardino
5500 University Parkway, San Bernardino, CA. 92407
Phone: (909) 537-5108, Email: Weather Webmaster
Last Updated: